Home   Weather   Riverside   Past weeks

Flag for USA Past Weather in Riverside, California, USA — Yesterday and Last 2 Weeks

Now
72 °F

Clear.


Feels Like: 75 °F
Forecast: 67 / 97 °F
Wind: No wind

Location: Riverside Municipal Airport

Current Time: Sep 26, 2016 at 3:30:24 AM

Latest Report: Sep 26, 2016 at 2:53 AM


Visibility: 10 mi

Pressure: 29.92 "Hg

Humidity: 22%

Dew Point: 31 °F

Location of RiversideLocation

Past Weather in Riverside — Graph

°F

Riverside Temperature Yesterday

Maximum temperature yesterday: 99 °F (at 3:53 PM)
Minimum temperature yesterday: 62 °F (at 4:53 AM)
Average temperature yesterday: 83 °F

High & Low Weather Summary for the Past Weeks

 TemperatureHumidityPressure
High105 °F (Sep 18, 1:53 PM)87% (Sep 12, 2:53 AM)30.05 "Hg (Sep 12, 2:53 AM)
Low54 °F (Sep 23, 6:53 AM)5% (Sep 18, 12:53 PM)29.77 "Hg (Sep 21, 4:53 PM)
Average74 °F49%29.91 "Hg
* Reported Sep 11 1:53 AM — Sep 26 1:53 AM, Riverside, Weather by CustomWeather, © 2016

Note: Actual official high and low records may vary slightly from our data, if they occured in-between our weather recording intervals... More about our weather records

Advertising

Riverside Weather History for the Previous 24 Hours

Scroll right to see more
 ConditionsComfort  
Time TempWeatherWind HumidityBarometerVisibility
1:53 AM
Mon, Sep 26
74 °FClear.7 mph20%29.93 "Hg10 mi
12:53 AM75 °FClear.8 mph19%29.93 "Hg10 mi
11:53 PM
Sun, Sep 25
80 °FClear.No wind13%29.93 "Hg10 mi
10:53 PM78 °FClear.No wind15%29.93 "Hg10 mi
9:53 PM83 °FClear.5 mph12%29.92 "Hg10 mi
8:53 PM87 °FClear.5 mph9%29.91 "Hg10 mi
7:53 PM90 °FClear.8 mph8%29.89 "Hg10 mi
6:53 PM92 °FClear.9 mph7%29.88 "Hg10 mi
5:53 PM95 °FSunny.12 mph6%29.85 "Hg10 mi
4:53 PM98 °FSunny.12 mph6%29.85 "Hg10 mi
3:53 PM99 °FSunny.14 mph6%29.86 "Hg10 mi
2:53 PM98 °FSunny.13 mph6%29.88 "Hg9 mi
1:53 PM97 °FSunny.15 mph6%29.90 "Hg10 mi
12:53 PM97 °FSunny.10 mph7%29.92 "Hg10 mi
11:53 AM94 °FSunny.12 mph9%29.96 "Hg10 mi
10:53 AM91 °FSunny.No wind10%29.98 "Hg10 mi
9:53 AM89 °FSunny.9 mph11%30.00 "Hg10 mi
8:53 AM82 °FSunny.7 mph22%30.00 "Hg10 mi
7:53 AM69 °FSunny.No wind36%30.00 "Hg10 mi
6:53 AM63 °FSunny.No wind45%29.99 "Hg10 mi
5:53 AM64 °FClear.8 mph41%29.97 "Hg10 mi
4:53 AM62 °FClear.3 mph50%29.96 "Hg10 mi
3:53 AM66 °FClear.3 mph40%29.94 "Hg10 mi
Weather by CustomWeather, © 2016

See weather overviewHow to use our weather pages